Location: Unspecified
(50.7693°N, 0.0000°E)
Time: 02:31:59
(UTC+00:00)

Transit 2A - Pass Details

Date: 28 June 2019
Orbit: 595 x 964 km, 66.7° (Epoch: 22 July)

Event Time Altitude Azimuth Distance (km) Brightness Sun altitude
Rises 05:42:29 0° 321° (NW) 3,530 9.2 14.7°
Reaches altitude 10° 05:45:22 10° 331° (NNW) 2,533 8.6 15.1°
Maximum altitude 05:50:35 32° 33° (NNE) 1,370 8.3 15.9°
Drops below altitude 10° 05:55:21 10° 97° (E) 2,299 9.9 16.6°
Sets 05:57:51 0° 108° (ESE) 3,159 10.2 17.0°
